CW9669 Weather Reports


Display with metric or nautical units.
time (UTC)temp
F
wind
direction
speed
MPH
gust
MPH
rain 1hr
in
rain 24hr
in
rain mn
in
humidity
%
barometer
mb
20260510231130 72 266 3.0 10.0 0.00 0.00 0.00 52 1017.4
20260510230132 71 321 2.0 7.0 0.00 0.00 0.00 55 1017.4
20260510225132 71 322 2.0 10.0 0.00 0.00 0.00 55 1017.5
20260510225053 71 309 3.0 9.0 0.00 0.00 0.00 53 1017.6
20260510223129 71 291 2.0 8.0 0.00 0.00 0.00 55 1017.6
20260510222129 71 350 2.0 5.0 0.00 0.00 0.00 55 1017.7
20260510221128 71 331 2.0 9.0 0.00 0.00 0.00 53 1017.7
20260510220608 71 324 1.0 5.0 0.00 0.00 0.00 53 1017.9
20260510215127 71 302 1.0 6.0 0.00 0.00 0.00 53 1017.9
20260510214122 71 14 1.0 3.0 0.00 0.00 0.00 54 1018.0
20260510213123 71 17 1.0 5.0 0.00 0.00 0.00 53 1018.3
20260510212606 71 146 1.0 3.0 0.00 0.00 0.00 54 1018.3
20260510211123 70 96 1.0 3.0 0.00 0.00 0.00 55 1018.2
20260510210123 69 15 1.0 6.0 0.00 0.00 0.00 58 1018.2
20260510205121 68 207 1.0 6.0 0.00 0.00 0.00 58 1018.3
20260510204122 69 98 1.0 4.0 0.00 0.00 0.00 59 1018.3
20260510203119 68 260 1.0 2.0 0.00 0.00 0.00 58 1018.4
20260510202117 67 290 1.0 4.0 0.00 0.00 0.00 60 1018.5
20260510201119 67 288 1.0 3.0 0.00 0.00 0.00 62 1018.5
20260510200119 66 69 1.0 3.0 0.00 0.00 0.00 62 1018.7
20260510195115 66 254 0.0 3.0 0.00 0.00 0.00 61 1018.6
20260510194116 66 34 1.0 5.0 0.00 0.00 0.00 61 1018.6
20260510193115 65 188 1.0 4.0 0.00 0.00 0.00 64 1018.7
20260510192114 65 78 2.0 4.0 0.00 0.00 0.00 64 1018.8
20260510191548 64 201 2.0 5.0 0.00 0.00 0.00 67 1018.8
20260510190114 63 166 1.0 4.0 0.00 0.00 0.00 68 1018.7
20260510185114 61 119 1.0 3.0 0.00 0.00 0.00 72 1018.8
20260510184115 61 219 0.0 4.0 0.00 0.00 0.00 72 1018.9
20260510183116 60 225 0.0 2.0 0.00 0.00 0.00 73 1018.8
20260510182112 59 204 1.0 3.0 0.00 0.00 0.00 74 1018.8
20260510181112 59 336 1.0 3.0 0.00 0.00 0.00 74 1018.8
20260510180113 58 330 0.0 2.0 0.00 0.00 0.00 75 1018.7
20260510175544 58 285 1.0 2.0 0.00 0.00 0.00 76 1018.7
20260510174111 58 210 0.0 3.0 0.00 0.00 0.00 76 1018.6
20260510173110 58 293 0.0 3.0 0.00 0.00 0.00 77 1018.5
20260510172123 57 217 0.0 3.0 0.00 0.00 0.00 77 1018.3
20260510171542 57 312 0.0 2.0 0.00 0.00 0.00 78 1018.2
20260510170108 56 294 0.0 1.0 0.00 0.00 0.00 79 1018.2
20260510165109 56 294 0.0 3.0 0.00 0.00 0.00 79 1018.2
20260510164559 56 337 0.0 2.0 0.00 0.00 0.00 79 1018.2
20260510163107 56 302 0.0 1.0 0.00 0.00 0.00 79 1018.2
20260510162107 56 215 1.0 3.0 0.00 0.00 0.00 80 1018.1
20260510161107 56 210 0.0 1.0 0.00 0.00 0.00 80 1017.9
20260510155548 55 269 1.0 3.0 0.00 0.00 0.00 81 1018.1
20260510154104 55 292 0.0 1.0 0.00 0.00 0.00 81 1018.0
20260510153103 55 289 0.0 2.0 0.00 0.00 0.00 81 1017.9
20260510152103 54 209 1.0 4.0 0.00 0.00 0.00 82 1017.8
20260510151105 54 213 0.0 2.0 0.00 0.00 0.00 83 1017.8
20260510150107 54 296 0.0 1.0 0.00 0.00 0.00 85 1017.8
20260510145107 54 161 0.0 1.0 0.00 0.00 0.00 86 1017.5
20260510144103 53 161 0.0 0.0 0.00 0.00 0.00 87 1017.5
20260510143102 53 161 0.0 1.0 0.00 0.00 0.00 87 1017.2
20260510142543 53 172 0.0 0.0 0.00 0.00 0.00 88 1017.0
20260510141101 52 171 0.0 1.0 0.00 0.00 0.00 88 1017.1
20260510140104 52 159 0.0 0.0 0.00 0.00 0.00 89 1016.9
20260510135536 52 161 0.0 0.0 0.00 0.00 0.00 89 1016.9
20260510134100 51 152 0.0 1.0 0.00 0.00 0.00 90 1016.9
20260510133059 51 155 0.0 1.0 0.00 0.00 0.00 90 1016.8
20260510132101 51 169 0.0 1.0 0.00 0.00 0.00 91 1017.2
20260510131058 51 166 0.0 0.0 0.00 0.00 0.00 90 1016.9
20260510130540 51 166 0.0 0.0 0.00 0.00 0.00 90 1016.7
20260510125056 51 198 0.0 0.0 0.00 0.00 0.00 89 1016.6
20260510124538 51 286 0.0 0.0 0.00 0.00 0.00 89 1016.6
20260510123056 51 286 0.0 0.0 0.00 0.00 0.00 89 1016.6
20260510122056 51 286 0.0 0.0 0.00 0.00 0.00 89 1016.6
20260510121056 51 286 0.0 0.0 0.00 0.00 0.00 89 1016.5
20260510120059 51 286 0.0 0.0 0.00 0.00 0.00 88 1016.6
20260510115056 51 286 0.0 0.0 0.00 0.00 0.00 88 1016.6
20260510114058 51 286 0.0 0.0 0.00 0.00 0.00 88 1016.4
20260510113057 52 286 0.0 0.0 0.00 0.00 0.00 87 1016.5
20260510112539 52 286 0.0 1.0 0.00 0.00 0.00 87 1016.3
20260510111055 53 292 0.0 2.0 0.00 0.00 0.00 87 1016.3
20260510110055 53 202 0.0 2.0 0.00 0.00 0.00 87 1016.2
20260510105059 53 351 0.0 1.0 0.00 0.00 0.00 86 1016.0
20260510104056 53 332 0.0 0.0 0.00 0.00 0.00 86 1015.9
20260510103057 53 332 0.0 1.0 0.00 0.00 0.00 86 1015.8
20260510102057 53 221 0.0 2.0 0.00 0.00 0.00 86 1015.9
20260510101054 52 252 0.0 2.0 0.00 0.00 0.00 88 1015.8
20260510100053 52 205 0.0 1.0 0.00 0.00 0.00 87 1015.5
20260510095052 52 165 0.0 0.0 0.00 0.00 0.00 86 1015.2
20260510094052 53 165 0.0 0.0 0.00 0.00 0.00 85 1015.2
20260510093054 53 165 0.0 0.0 0.00 0.00 0.00 85 1015.2
20260510092527 53 165 0.0 0.0 0.00 0.00 0.00 84 1015.2
20260510091541 53 165 0.0 0.0 0.00 0.00 0.00 84 1015.2
20260510090539 53 165 0.0 0.0 0.00 0.00 0.00 83 1015.2
20260510085050 54 165 0.0 0.0 0.00 0.00 0.00 82 1015.1
20260510084051 54 165 0.0 0.0 0.00 0.00 0.00 81 1015.2
20260510083050 55 165 0.0 0.0 0.00 0.00 0.00 80 1015.1
20260510082049 55 165 0.0 0.0 0.00 0.00 0.00 78 1015.0
20260510081049 56 165 0.0 2.0 0.00 0.00 0.00 78 1014.9
20260510080047 56 132 0.0 1.0 0.00 0.00 0.00 79 1015.0
20260510075048 56 169 0.0 1.0 0.00 0.00 0.00 82 1015.2
20260510074537 57 340 0.0 0.0 0.00 0.00 0.00 80 1015.1
20260510073047 58 341 0.0 0.0 0.00 0.00 0.00 77 1014.9
20260510072043 60 340 0.0 0.0 0.00 0.00 0.00 74 1014.9
20260510071717 60 341 0.0 0.0 0.00 0.00 0.00 71 1014.9
20260510070908 61 341 0.0 1.0 0.00 0.00 0.00 69 1014.7
20260510065521 61 337 0.0 1.0 0.00 0.00 0.00 69 1014.7
20260510064537 61 347 0.0 5.0 0.00 0.00 0.00 71 1014.7
20260510063043 61 56 0.0 0.0 0.00 0.00 0.00 74 1014.5
20260510062042 61 56 0.0 0.0 0.00 0.00 0.00 75 1014.5
20260510061043 61 56 0.0 1.0 0.00 0.00 0.00 74 1014.4
20260510060045 61 56 0.0 1.0 0.00 0.00 0.00 74 1014.3
20260510055044 61 355 0.0 1.0 0.00 0.00 0.00 74 1014.3
20260510054042 62 349 0.0 0.0 0.00 0.00 0.00 73 1014.3
20260510053951 62 349 0.0 0.0 0.00 0.00 0.00 72 1014.3
20260510052526 62 349 0.0 0.0 0.00 0.00 0.00 71 1014.1
20260510051524 63 349 0.0 0.0 0.00 0.00 0.00 69 1014.1
20260510050041 64 349 0.0 0.0 0.00 0.00 0.00 67 1014.1
20260510045042 65 350 0.0 0.0 0.00 0.00 0.00 65 1014.0
20260510044042 65 350 0.0 0.0 0.00 0.00 0.00 65 1013.9
20260510043043 64 350 0.0 0.0 0.00 0.00 0.00 67 1013.8
20260510042523 65 321 0.0 0.0 0.00 0.00 0.00 66 1013.8
20260510041528 66 321 0.0 0.0 0.00 0.00 0.00 64 1013.5
20260510040043 67 321 0.0 0.0 0.00 0.00 0.00 62 1013.4
20260510035044 68 321 0.0 0.0 0.00 0.00 0.00 59 1013.4
20260510034043 69 321 0.0 0.0 0.00 0.00 0.00 58 1013.2
20260510033520 70 325 0.0 2.0 0.00 0.00 0.00 56 1013.2
20260510032045 70 319 0.0 2.0 0.00 0.00 0.00 55 1013.0
20260510031044 71 312 1.0 3.0 0.00 0.00 0.00 55 1013.0
20260510030527 72 296 0.0 2.0 0.00 0.00 0.00 54 1012.9
20260510025042 72 305 1.0 3.0 0.00 0.00 0.00 53 1012.8
20260510024042 73 342 1.0 3.0 0.00 0.00 0.00 51 1012.8
20260510023043 73 309 1.0 5.0 0.00 0.00 0.00 49 1012.8
20260510023008 73 300 2.0 5.0 0.00 0.00 0.00 47 1012.8
20260510021042 74 310 1.0 4.0 0.00 0.00 0.00 44 1013.0
20260510020042 74 317 1.0 3.0 0.00 0.00 0.00 44 1012.9
20260510015044 74 302 2.0 4.0 0.00 0.00 0.00 43 1012.9
20260510014042 74 336 3.0 9.0 0.00 0.00 0.00 43 1013.0
20260510013041 75 304 2.0 7.0 0.00 0.00 0.00 44 1013.0
20260510012041 76 315 3.0 6.0 0.00 0.00 0.00 44 1013.1
20260510011041 76 348 3.0 9.0 0.00 0.00 0.00 44 1013.1
20260510010042 76 305 3.0 9.0 0.00 0.00 0.00 45 1013.3
20260510005044 76 252 3.0 8.0 0.00 0.00 0.00 47 1013.1
20260510004044 76 314 3.0 9.0 0.00 0.00 0.00 45 1013.1
20260510004014 76 281 4.0 9.0 0.00 0.00 0.00 45 1013.1
20260510002531 76 301 3.0 12.0 0.00 0.00 0.00 45 1013.3
20260510001042 75 271 5.0 11.0 0.00 0.00 0.00 46 1013.3
20260510001018 76 38 4.0 12.0 0.00 0.00 0.00 46 1013.3
20260509235516 75 304 4.0 11.0 0.00 0.00 0.00 50 1013.3
20260509234042 75 317 4.0 11.0 0.00 0.00 0.00 51 1013.4
20260509233041 75 301 4.0 12.0 0.00 0.00 0.00 52 1013.5
20260509232039 75 333 5.0 11.0 0.00 0.00 0.00 52 1013.5